INTELSAT 15 (IS-15)

Last updated on Sat Jun 14 2025 00:02:44 GMT+0000 (Coordinated Universal Time)

1 36106U 09067A 25164.60530575 -.00000170 00000+0 00000+0 0 9994 2 36106 0.0176 339.3816 0002245 103.5712 122.2719 1.00271774 37538
UTC large
Height (km)
Speed (km/s)
/
Latitude / Longitude
Inclination (degrees)
Orbital Period (minutes)
Azimuth
Elevation
Range (km)
Doppler Factor

Next 0 passes for location: London (51.5072 / 0.1276)

Sorry there are no passes over London.